{"data":{"norad_id":39474,"epoch":"2026-05-25T04:04:28.205760Z","epoch_age_seconds":63397,"freshness":"FRESH","line1":"1 39474U 13072N   26145.16977090  .00095662  00000+0  10590-2 0  9991","line2":"2 39474 120.4513  42.8509 0070168  28.1281 332.3577 15.59289135113987","mean_motion":15.59289135,"eccentricity":0.0070168,"inclination_deg":120.4513,"raan_deg":42.8509,"arg_perigee_deg":28.1281,"mean_anomaly_deg":332.3577,"bstar":0.001059,"rev_number":11398,"period_min":92.349774501571,"perigee_km":342.2245802452,"apogee_km":437.20188325751,"semimajor_km":6767.8502317514,"source":"CELESTRAK","updated_at":"2026-05-25T13:37:55.406622Z"}}